Change the Weather History Date:

Tuesday, August 13, 2013

  Actual Average Record
Temperature  
Mean Temperature 66 °F -  
Max Temperature 72 °F 79 °F 93 °F (2002)
Min Temperature 61 °F 57 °F 43 °F (2006)
Cooling Degree Days 2    
Growing Degree Days 16 (Base 50)    
Moisture  
Dew Point 64 °F    
Average Humidity 91    
Maximum Humidity 97    
Minimum Humidity 81    
Precipitation  
Precipitation 0.22 in - - ()
Sea Level Pressure  
Sea Level Pressure 29.79 in    
Wind  
Wind Speed 2 mph (South)    
Max Wind Speed 8 mph    
Max Gust Speed -    
Visibility 9 miles    
Events Rain    
Averages and records for this station are not official NWS values.
T = Trace of Precipitation, MM = Missing Value Source: NWS Daily Summary

Daily Weather History Graph

Daily Weather History Graph

Search for Another Location

Airport or City:

Trip Planner

Search our weather history database for the weather conditions in past years. The results will help you decide how hot, cold, wet, or windy it might be!

Date:

Astronomy

Aug. 13, 2013 Rise Set
Actual Time 5:53 AM EDT 7:53 PM EDT
Civil Twilight 5:23 AM EDT 8:23 PM EDT
Nautical Twilight 4:45 AM EDT 9:00 PM EDT
Astronomical Twilight 4:05 AM EDT 9:41 PM EDT
Moon 12:56 PM EDT (8/13) 11:15 PM EDT (8/13)
Length of Visible Light 15h 00m
Length of Day
13h 59m
Waxing Crescent, 41% of the Moon is Illuminated
Aug 13
Waxing Crescent
Aug 14
First Quarter
Aug 20
Full
Aug 28
Last Quarter
Sep 5
New

Hourly Weather History & Observations

Time (EDT) Temp. Dew Point Humidity Pressure Visibility Wind Dir Wind Speed Gust Speed Precip Events Conditions
12:52 AM 63.0 °F 61.0 °F 93% 29.93 in 10.0 mi Calm Calm - N/A   Overcast
1:52 AM 63.0 °F 61.0 °F 93% 29.91 in 10.0 mi Calm Calm - N/A   Overcast
2:52 AM 63.0 °F 61.0 °F 93% 29.89 in 10.0 mi Calm Calm - N/A   Mostly Cloudy
3:52 AM 62.1 °F 60.1 °F 93% 29.88 in 10.0 mi Calm Calm - N/A   Clear
4:52 AM 61.0 °F 60.1 °F 97% 29.86 in 10.0 mi Calm Calm - N/A   Clear
5:52 AM 62.1 °F 60.1 °F 93% 29.85 in 10.0 mi Calm Calm - N/A   Clear
6:41 AM 62.6 °F 60.8 °F 94% 29.86 in 10.0 mi Calm Calm - N/A   Overcast
6:52 AM 62.1 °F 60.1 °F 93% 29.86 in 9.0 mi Calm Calm - N/A   Overcast
7:52 AM 64.0 °F 61.0 °F 90% 29.85 in 10.0 mi Calm Calm - N/A   Overcast
8:52 AM 66.9 °F 64.0 °F 90% 29.82 in 10.0 mi South 3.5 mph - N/A   Overcast
9:37 AM 69.8 °F 64.4 °F 83% 29.83 in 10.0 mi South 8.1 mph - 0.00 in Rain Light Rain
9:52 AM 68.0 °F 66.0 °F 93% 29.83 in 7.0 mi SSE 5.8 mph - 0.01 in Rain Light Rain
10:01 AM 68.0 °F 66.2 °F 94% 29.83 in 6.0 mi South 6.9 mph - 0.01 in Rain Light Rain
10:52 AM 68.0 °F 66.0 °F 93% 29.84 in 6.0 mi South 4.6 mph - 0.06 in Rain Light Rain
11:52 AM 69.1 °F 66.9 °F 93% 29.82 in 9.0 mi SSE 6.9 mph - 0.01 in Rain Light Rain
12:04 PM 69.8 °F 66.2 °F 88% 29.82 in 9.0 mi South 6.9 mph - 0.00 in   Overcast
12:52 PM 70.0 °F 66.9 °F 90% 29.80 in 10.0 mi SSE 5.8 mph - 0.00 in   Overcast
1:07 PM 69.8 °F 66.2 °F 88% 29.79 in 10.0 mi SSE 3.5 mph - N/A   Overcast
1:15 PM 69.8 °F 66.2 °F 88% 29.79 in 10.0 mi SE 5.8 mph - 0.00 in Rain Light Rain
1:48 PM 69.8 °F 66.2 °F 88% 29.78 in 10.0 mi South 5.8 mph - 0.00 in   Mostly Cloudy
1:52 PM 70.0 °F 66.9 °F 90% 29.77 in 10.0 mi SSE 6.9 mph - 0.00 in   Overcast
1:57 PM 69.8 °F 66.2 °F 88% 29.77 in 10.0 mi Variable 3.5 mph - N/A   Overcast
2:11 PM 69.8 °F 66.2 °F 88% 29.77 in 10.0 mi SSE 4.6 mph - N/A   Overcast
2:29 PM 69.8 °F 66.2 °F 88% 29.76 in 7.0 mi SSE 5.8 mph - 0.01 in Rain Light Rain
2:52 PM 71.1 °F 66.0 °F 84% 29.75 in 10.0 mi SSE 6.9 mph - 0.01 in   Overcast
3:52 PM 71.1 °F 66.0 °F 84% 29.74 in 10.0 mi SSE 5.8 mph - N/A   Overcast
4:52 PM 70.0 °F 66.9 °F 90% 29.73 in 10.0 mi Calm Calm - 0.00 in   Overcast
5:52 PM 72.0 °F 66.0 °F 81% 29.71 in 10.0 mi South 4.6 mph - N/A   Mostly Cloudy
6:52 PM 71.1 °F 64.9 °F 81% 29.70 in 10.0 mi Calm Calm - N/A   Scattered Clouds
7:52 PM 68.0 °F 66.0 °F 93% 29.70 in 10.0 mi Calm Calm - N/A   Clear
8:52 PM 66.0 °F 64.9 °F 96% 29.72 in 7.0 mi Calm Calm - N/A   Mostly Cloudy
9:52 PM 66.0 °F 64.9 °F 96% 29.73 in 3.0 mi WNW 3.5 mph - 0.05 in Rain Rain
10:42 PM 66.2 °F 64.4 °F 94% 29.73 in 6.0 mi Calm Calm - 0.02 in Rain Light Rain
10:52 PM 66.0 °F 64.9 °F 96% 29.73 in 5.0 mi WSW 3.5 mph - 0.03 in Rain Light Rain
11:05 PM 66.2 °F 64.4 °F 94% 29.72 in 4.0 mi Calm Calm - 0.05 in Rain Light Rain
11:52 PM 66.0 °F 64.9 °F 96% 29.70 in 5.0 mi Calm Calm - 0.05 in   Scattered Clouds